X  CloseLight rain starting this evening.
Conditions Temp Feels Precipitation Windspeed Direction UV index Pressure
13:00 cloudy Overcast 48° 0 in 7% 10-18 mph SSW SSW
1
30,00
14:00 cloudy Overcast 48° 0 in 9% 8-16 mph SSW SSW
1
30,01
15:00 cloudy Overcast 49° 0 in 7% 7-13 mph South South - 29,98
16:00 cloudy Overcast 49° 0 in 7% 5-10 mph South South - 29,96
17:00 cloudy Overcast 48° - 6-9 mph SE SE - 29,93
18:00 cloudy Overcast 49° 0 in 10% 9-14 mph East East - 29,89
19:00 cloudy Overcast 48° - 10-18 mph East East - 29,85
20:00 rain Possible Drizzle 49° 0.01 in 37% 12-22 mph East East - 29,80
21:00 rain Light Rain 48° 0.03 in 65% 12-25 mph East East - 29,77
22:00 rain Light Rain 48° 42° 0.05 in 77% 14-34 mph ESE ESE - 29,74
23:00 rain Light Rain and Windy 48° 41° 0.06 in 77% 18-40 mph ESE ESE - 29,70
00:00 rain Light Rain 48° 42° 0.07 in 82% 18-38 mph SE SE - 29,66
01:00 rain Light Rain and Windy 49° 42° 0.05 in 77% 21-42 mph SE SE - 29,65
02:00 rain Light Rain and Windy 49° 41° 0.03 in 71% 24-43 mph SSE SSE - 29,66
03:00 rain Light Rain and Windy 49° 41° 0.02 in 71% 28-44 mph South South - 29,67
04:00 rain Possible Drizzle and Windy 48° 40° 0.01 in 54% 32-43 mph SSW SSW - 29,71
05:00 rain Possible Drizzle and Windy 49° 41° 0.01 in 56% 29-41 mph SSW SSW - 29,75
06:00 rain Possible Drizzle and Windy 49° 41° 0.01 in 52% 25-38 mph SW SW - 29,79
07:00 rain Possible Drizzle 49° 41° 0.01 in 49% 23-35 mph SW SW - 29,84
08:00 rain Possible Drizzle 48° 41° 0 in 40% 21-33 mph SW SW - 29,89
09:00 rain Possible Drizzle 48° 41° 0.01 in 37% 20-31 mph SW SW - 29,93
10:00 rain Possible Drizzle 48° 41° 0.01 in 36% 19-29 mph SW SW - 29,97
11:00 rain Possible Drizzle 48° 42° 0.01 in 32% 19-29 mph SW SW
1
29,99
12:00 rain Possible Drizzle 48° 42° 0.01 in 39% 18-29 mph SSW SSW
1
30,00
13:00 rain Possible Light Rain 48° 42° 0.02 in 48% 19-30 mph SSW SSW
1
30,01
14:00 rain Possible Light Rain 48° 41° 0.03 in 56% 20-31 mph SSW SSW
1
30,00
15:00 rain Light Rain 48° 41° 0.05 in 68% 21-33 mph South South - 29,99
16:00 rain Light Rain 48° 41° 0.07 in 74% 22-35 mph South South - 29,98
17:00 rain Light Rain and Windy 48° 40° 0.07 in 73% 25-37 mph SSW SSW - 29,98
18:00 rain Light Rain and Windy 48° 40° 0.06 in 77% 28-40 mph SSW SSW - 29,99
19:00 rain Light Rain and Windy 48° 40° 0.04 in 74% 29-40 mph SW SW - 30,00
20:00 rain Possible Light Rain and Windy 48° 40° 0.03 in 56% 25-34 mph SW SW - 30,02
21:00 rain Possible Drizzle 48° 41° 0.01 in 39% 20-26 mph SW SW - 30,06
22:00 rain Possible Drizzle 47° 41° 0.01 in 25% 15-19 mph SW SW - 30,08
23:00 partly-cloudy-night Mostly Cloudy 47° 41° 0.01 in 20% 14-16 mph SW SW - 30,10
00:00 partly-cloudy-night Mostly Cloudy 47° 41° 0.01 in 23% 13-15 mph SW SW - 30,11
01:00 rain Possible Drizzle 46° 41° 0.01 in 28% 12-14 mph SW SW - 30,11
02:00 rain Possible Drizzle 45° 40° 0.01 in 32% 11-12 mph SSW SSW - 30,11
03:00 rain Possible Drizzle 45° 0 in 33% 10-11 mph SSW SSW - 30,10
04:00 rain Possible Drizzle 45° 0 in 28% 9-10 mph South South - 30,09
05:00 rain Possible Drizzle 45° 0 in 30% 9-11 mph SSE SSE - 30,09
06:00 rain Possible Drizzle 44° 0.01 in 42% 10-13 mph SSE SSE - 30,07
07:00 rain Possible Drizzle 44° 39° 0.01 in 51% 10-15 mph SE SE - 30,06
08:00 rain Possible Drizzle 45° 39° 0.01 in 60% 11-15 mph SE SE - 30,05
09:00 rain Light Rain 45° 40° 0.02 in 69% 12-16 mph SE SE - 30,03
10:00 rain Light Rain 46° 40° 0.03 in 74% 13-18 mph SE SE - 30,01
11:00 rain Light Rain 46° 40° 0.05 in 80% 14-22 mph SE SE
1
29,98
12:00 rain Light Rain 47° 41° 0.08 in 86% 16-28 mph SE SE
1
29,96
13:00 rain Rain 48° 41° 0.12 in 89% 17-34 mph SSE SSE
1
29,93
Powered by:   darksky logo